OBJECT M, 44890

Orbit data source: Space-Track

You're viewing an Uncataloged Satellite

Recently launched and/or uncataloged satellites may have evolving metadata. Metadata may include but not limited to: Owner, Maufacturer, Bus, Motor, and Mission.

OBJECT M, 44890 is a satellite in SSO that was launched on Fri, 20 Dec 2019 UTC launched from the Taiyaun Space Center, China (TSC). Unknown objects in Earth's orbit typically refer to objects detected orbiting the Earth but have not yet been identified or cataloged. These objects could be anything from previously untracked satellites, spent rocket stages, debris from satellite collisions, or even natural meteoroids temporarily captured by Earth's gravity.

Loading next visibility...
Identifier
44890, 2019-093M
Orbit
SSO
Country
Flag of TBDTBD
Related business
Manufacturer
SAST
Mission
Spacecraft
Bus & Motor
Unknown
Mass
Unknown
Launch date (UTC)
2019-12-20 (6 years ago)
Launch vehicle
Unknown
Launch site
Taiyaun Space Center, China (TSC)
Object type
Unknown
Shape & HBR
Unknown shape, 0.1 m
Radar Cross Section
Small (<0.1 m²)

Expand to show TLE details & history
Last TLE update: 8 hours ago

TLE from 8 hours ago
0 OBJECT M
1 44890U 19093M   26104.81311729  .00002246  00000-0  97040-4 0  9990
2 44890  97.7626 209.2505 0022081 172.9503 187.2048 15.23415668344638
Epoch: 2026-04-14T19:30Z
TLE epoch observation values (Epoch: 2026-04-14T19:30:53.333Z)
Latitude
-0.00003°
Longitude
73.5443°
Altitude
513.693 km
Speed
7.599 km/s
True Right ascension
13h 57m 00s
True Declination
0° 00' 00"
Sunlit
Object was in full shadow at epoch
Visualization orbit readout
Latitude
Unknown
Longitude
Unknown
Altitude
Unknown
Speed
Unknown
Apparent Right ascension
Unknown
Apparent Declination
Unknown
Sunlit
N/A
Visualization observer readout
Local Sidereal Time
10:01:18
Azimuth
Unknown
Elevation
Unknown
Doppler factor
Unknown
Orbital elements
Apogee altitude
507.695 km
Perigee altitude
477.353 km
Semi-major axis
6,870.661 km
Eccentricity
0.00221
Inclination
97.7626°
RAAN
209.2505°
Arg. of periapsis
172.9503°
True anomaly
187.17315°
Mean anomaly
187.2048°
Eccentric anomaly
187.18897°
Mean motion
3.81106 °/min
Orbital period
94.46 mins
BSTAR
0.00009704
Loading maneuver chart data...
Computing Atmospheric mass density...
Loading historical data...
Loading historical data...
Loading historical data...
Loading historical data...
Loading historical data...
Loading historical data...
Loading historical data...

Documentation

Showing up to 5 results
|